Вернуться в каталог

STARLINK-11723

АктивенСвязьVLEO
NORAD 64075·PAYLOAD·🇺🇸 United States

Запущен May 21, 2025 с Cape Canaveral Space Force Station

Loading…

Ближайшие Пролёты (ближайшие 24 часа)

TLE

СвежийSource: CelesTrak SupGP

Эпоха: Sep 14, 2026, 20:58 UTC

1 64075C 25107M   26257.87409722  .00088740  00000+0  68941-3 0  2572
2 64075  43.0009  37.9767 0001703 276.6682 344.2094 15.70788457    16

Отслеживайте STARLINK-11723 в реальном времени с AllMySat

Download on the App Store